Terminal Aerodrome Forecast
Issued by NWS

Current Version | Previous Version | Graphics & Text | Print | Product List | Glossary On
Versions: 1 2 3 4 5 6 7 8 9 10 11 12 13 14 15 16 17 18 19 20 21 22 23 24 25
539
FTUS41 KRLX 241131
TAFCKB
TAF
KCKB 241131Z 2412/2512 00000KT P6SM BKN070
     FM242000 34005KT P6SM SCT035
     FM250900 00000KT 6SM BR BKN090=

USA.gov is the U.S. government's official web portal to all federal, state and local government web resources and services.